Location: Newark
(45.7167°N, 7.8833°E)
Time: 10:35:32
(UTC+00:00)

ISS - Pass Details

Date: 01 April 2020
Orbit: 417 x 419 km, 51.6° (Epoch: 03 June)

Event Time Altitude Azimuth Distance (km) Brightness Sun altitude
Rises 18:52:17 0° 298° (WNW) 2,368 2.1 -10.2°
Reaches altitude 10° 18:54:26 10° 303° (WNW) 1,501 0.5 -10.5°
Maximum altitude 18:57:44 51° 21° (NNE) 532 -3.3 -11.1°
Enters shadow 19:00:00 18° 93° (E) 1,104 -2.2 -11.4°
